Location: Drummondville
(45.8830°N, 72.4830°W)
Time: 03:09:23

N. Korean satellite - Visible Passes

Search period start: 19 March 2018 00:00
Search period end: 29 March 2018 00:00
Orbit: 460 x 512 km, 97.2° (Epoch: 18 March)

Date Brightness Start Highest point End Pass type
(mag) Time Alt. Az. Time Alt. Az. Time Alt. Az.
20 Mar 10.7 06:18:11 10° ENE 06:19:01 11° E 06:19:50 10° E visible
21 Mar 9.9 19:38:15 10° SW 19:40:44 17° W 19:43:16 10° NW visible
25 Mar 9.9 19:36:17 10° SW 19:38:54 18° W 19:41:32 10° NW visible
28 Mar 10.6 20:00:35 10° W 20:01:04 10° W 20:01:33 10° W visible
